{"data":{"norad_id":67957,"epoch":"2026-09-19T03:01:13.740672Z","epoch_age_seconds":181945,"freshness":"STALE","line1":"1 67957U 26037AB  26262.12585348  .00009681  00000+0  36079-3 0  9997","line2":"2 67957  42.9985 178.3522 0001146 273.8355  86.2365 15.27585595 32913","mean_motion":15.27585595,"eccentricity":0.0001146,"inclination_deg":42.9985,"raan_deg":178.3522,"arg_perigee_deg":273.8355,"mean_anomaly_deg":86.2365,"bstar":0.00036079,"rev_number":3291,"period_min":94.266403448247,"perigee_km":482.24605264133,"apogee_km":483.81863265467,"semimajor_km":6861.169342648,"source":"CELESTRAK","updated_at":"2026-09-20T09:00:43.712184Z"}}